Weather in Akulovo

Russia / Altai Krai     53°55′02″N   84°01′15″E
temp.,
°C
wind,
m/s
gust,
m/s
humid.,
%
clouds,
%
prec.,
mm/h
press.,
hPa
HPBL,
m
15 june, tue
tue1501:00+10nne2276100 0.0 101911
04:00+9n11785 0.0 101910
07:00+12n12755 0.0 101974
10:00+19n125554 0.0 1018642
13:00+22nw134698 0.0 10181537
16:00+23wnw33508 0.0 10161683
19:00+22sw33650 0.1 1015626
22:00+17w228679 0.3 101527
16 june, wed
wed1601:00+14wsw349377 0.6 101555
04:00+13sw33924 0.0 101552
07:00+15wsw24915 0.0 1014109
10:00+21wsw347179 0.0 1014515
13:00+24w345472 0.4 10141475
16:00+26w354754 0.0 10131650
19:00+21wsw8117583 0.1 1012352
22:00+16ssw1170100 0.9 101211
17 june, thu
thu1701:00+16se3378100 1.0 101258
04:00+15s278743 0.1 1010133
07:00+16sw3992100 0.3 1010239
10:00+20sw4677100 0.3 1010464
13:00+23sw356274 0.4 1009854
16:00+23nnw457362 2.6 1007510
19:00+16se3692100 13.3 1008132
22:00+16ssw33921 0.1 100842
18 june, fri
fri1801:00+14sw23974 0.1 100752
04:00+13wsw22954 0.0 100713
07:00+15ssw1293100 0.0 100786
10:00+20ssw237678 0.0 1006492
13:00+24wsw346011 0.0 10051397
16:00+26w145053 0.0 10041473
19:00+18se5108999 3.3 1003207
22:00+16sse39930 1.6 1003164
19 june, sat
sat1901:00+16sw3897100 3.6 1003174
04:00+15sse3695100 0.3 1000103
07:00+16ssw279598 0.3 1001200
10:00+21ssw347840 0.0 1001481
13:00+24s33675 0.0 1000951
16:00+27sse34576 0.0 9981481
19:00+26sse357197 0.2 998479
22:00+16w379697 2.3 1001226